AFR8 LFPG-KJFK

Flight info

Callsign AFR8
Flight time N/A
Altitude 34000
Route ELCOB UT300 SENLO DCT JSY DCT LIZAD DCT LULOX DCT LIMRI/M083F360 NATE JOOPY/N0466F360 N328A TUSKY DCT PLYMM PARCH4
Aircraft B77W/H-SDE1E2E3FGHIJ2J3J4J5M1RWXY/LB1D1

Departure

Time 2026-04-30 14:38
Airport Charles de Gaulle International Airport (LFPG)

Arrival

Time N/A
Airport John F. Kennedy International Airport (KJFK)
Time Latitude Longitude Altitude Speed Heading
2026-04-30 13:55 49.00311 2.59215 335 ft 0 kts 265°
2026-04-30 14:27 49.00312 2.59220 335 ft 2 kts 265°
2026-04-30 14:27 49.00313 2.59243 334 ft 2 kts 265°
2026-04-30 14:28 49.00315 2.59280 334 ft 2 kts 257°
2026-04-30 14:28 49.00320 2.59301 333 ft 2 kts 235°
2026-04-30 14:28 49.00330 2.59318 333 ft 2 kts 218°
2026-04-30 14:28 49.00343 2.59330 333 ft 2 kts 201°
2026-04-30 14:29 49.00367 2.59335 334 ft 0 kts 175°
2026-04-30 14:29 49.00366 2.59335 334 ft 0 kts 175°
2026-04-30 14:31 49.00364 2.59335 334 ft 1 kts 175°
2026-04-30 14:31 49.00307 2.59341 333 ft 6 kts 176°
2026-04-30 14:31 49.00260 2.59347 333 ft 7 kts 175°
2026-04-30 14:32 49.00133 2.59364 332 ft 11 kts 175°
2026-04-30 14:32 49.00056 2.59343 333 ft 11 kts 196°
2026-04-30 14:32 48.99985 2.59277 332 ft 13 kts 239°
2026-04-30 14:33 48.99964 2.59126 332 ft 15 kts 265°
2026-04-30 14:33 48.99944 2.58766 332 ft 18 kts 265°
2026-04-30 14:33 48.99934 2.58567 333 ft 19 kts 266°
2026-04-30 14:34 48.99923 2.58359 333 ft 20 kts 265°
2026-04-30 14:34 48.99911 2.58138 333 ft 21 kts 265°
2026-04-30 14:34 48.99899 2.57911 333 ft 22 kts 265°
2026-04-30 14:34 48.99886 2.57672 334 ft 22 kts 265°
2026-04-30 14:35 48.99860 2.57175 333 ft 24 kts 266°
2026-04-30 14:35 48.99847 2.56916 336 ft 24 kts 265°
2026-04-30 14:35 48.99833 2.56652 336 ft 25 kts 265°
2026-04-30 14:36 48.99817 2.56381 335 ft 26 kts 265°
2026-04-30 14:36 48.99802 2.56105 336 ft 24 kts 266°
2026-04-30 14:36 48.99794 2.55929 336 ft 8 kts 262°
2026-04-30 14:36 48.99762 2.55829 336 ft 12 kts 215°
2026-04-30 14:37 48.99676 2.55818 336 ft 10 kts 179°
2026-04-30 14:37 48.99616 2.55830 335 ft 6 kts 145°
2026-04-30 14:37 48.99601 2.55908 334 ft 9 kts 90°
2026-04-30 14:37 48.99614 2.56140 335 ft 48 kts 85°
2026-04-30 14:38 48.99664 2.57016 333 ft 114 kts 84°
2026-04-30 14:38 48.99739 2.58508 369 ft 164 kts 88°
2026-04-30 14:38 48.99835 2.60302 858 ft 176 kts 87°
2026-04-30 14:38 48.99934 2.62141 1665 ft 177 kts 87°
2026-04-30 14:39 49.00037 2.64044 2010 ft 189 kts 87°
2026-04-30 14:39 49.00147 2.66159 2265 ft 208 kts 87°
2026-04-30 14:39 49.00266 2.68412 2540 ft 226 kts 87°
2026-04-30 14:40 49.00525 2.73443 3579 ft 241 kts 89°
2026-04-30 14:40 49.00256 2.75973 4099 ft 246 kts 113°
2026-04-30 14:40 48.99297 2.78107 4654 ft 252 kts 136°
2026-04-30 14:40 48.97778 2.79446 5261 ft 259 kts 161°
2026-04-30 14:41 48.95929 2.79630 5803 ft 269 kts 188°
2026-04-30 14:41 48.94218 2.78487 6353 ft 278 kts 216°
2026-04-30 14:41 48.92972 2.76173 6904 ft 285 kts 238°
2026-04-30 14:41 48.92017 2.73511 7516 ft 286 kts 240°
2026-04-30 14:42 48.91091 2.70854 8039 ft 289 kts 240°
2026-04-30 14:42 48.90140 2.68122 8611 ft 291 kts 240°
2026-04-30 14:42 48.89191 2.65397 9143 ft 294 kts 240°
2026-04-30 14:42 48.88231 2.62644 9675 ft 296 kts 240°
2026-04-30 14:43 48.87266 2.59880 10211 ft 298 kts 240°
2026-04-30 14:43 48.86272 2.57036 10496 ft 311 kts 240°
2026-04-30 14:43 48.85234 2.54073 10681 ft 327 kts 240°
2026-04-30 14:43 48.84143 2.50962 10878 ft 343 kts 240°
2026-04-30 14:44 48.82993 2.47684 11081 ft 358 kts 240°
2026-04-30 14:44 48.81820 2.44277 11310 ft 373 kts 244°
2026-04-30 14:44 48.80999 2.40500 11635 ft 386 kts 257°
2026-04-30 14:44 48.80708 2.36419 12199 ft 392 kts 269°
2026-04-30 14:45 48.80941 2.32325 12801 ft 396 kts 280°
2026-04-30 14:45 48.81696 2.28281 13419 ft 401 kts 290°
2026-04-30 14:45 48.82673 2.24344 14067 ft 405 kts 290°
2026-04-30 14:45 48.83635 2.20301 14759 ft 409 kts 289°
2026-04-30 14:46 48.84553 2.16219 15471 ft 413 kts 288°
2026-04-30 14:46 48.85461 2.12034 16188 ft 418 kts 287°
2026-04-30 14:46 48.86338 2.07876 16875 ft 422 kts 287°
2026-04-30 14:46 48.87219 2.03617 17522 ft 427 kts 287°
2026-04-30 14:47 48.88103 1.99283 18220 ft 431 kts 286°
2026-04-30 14:47 48.88983 1.94921 18869 ft 435 kts 286°
2026-04-30 14:47 48.89872 1.90479 19492 ft 441 kts 286°
2026-04-30 14:47 48.90756 1.86039 20083 ft 446 kts 286°
2026-04-30 14:48 48.91654 1.81502 20677 ft 451 kts 286°
2026-04-30 14:48 48.92558 1.76920 21259 ft 456 kts 286°
2026-04-30 14:48 48.93464 1.72309 21818 ft 461 kts 286°
2026-04-30 14:48 48.94382 1.67620 22379 ft 465 kts 286°
2026-04-30 14:49 48.95303 1.62904 22889 ft 470 kts 286°
2026-04-30 14:49 48.96242 1.58080 23470 ft 474 kts 286°
2026-04-30 14:49 48.97169 1.53305 23992 ft 477 kts 286°
2026-04-30 14:49 48.98108 1.48450 24572 ft 479 kts 286°
2026-04-30 14:50 48.99989 1.38694 25611 ft 485 kts 286°
2026-04-30 14:50 49.00941 1.33737 26060 ft 489 kts 285°
2026-04-30 14:51 49.02788 1.23707 26972 ft 495 kts 279°
2026-04-30 14:51 49.03236 1.18547 27409 ft 496 kts 272°
2026-04-30 14:51 49.03602 1.07970 28446 ft 499 kts 270°
2026-04-30 14:52 49.03763 1.02723 28903 ft 502 kts 270°
2026-04-30 14:52 49.04083 0.92039 29918 ft 505 kts 270°
2026-04-30 14:52 49.04239 0.86735 30626 ft 501 kts 271°
2026-04-30 14:53 49.04535 0.76333 32064 ft 492 kts 271°
2026-04-30 14:53 49.04679 0.71159 32713 ft 488 kts 271°
2026-04-30 14:54 49.04955 0.60938 33678 ft 485 kts 271°
2026-04-30 14:54 49.05223 0.50656 34115 ft 485 kts 271°
2026-04-30 14:55 49.05605 0.35381 34118 ft 479 kts 271°
2026-04-30 14:56 49.06079 0.15168 34110 ft 477 kts 271°
2026-04-30 14:57 49.06409 0.00120 34103 ft 474 kts 271°
2026-04-30 14:58 49.06820 -0.20028 34105 ft 476 kts 271°
2026-04-30 14:58 49.07106 -0.35105 34099 ft 476 kts 271°
2026-04-30 15:00 49.07542 -0.60225 34092 ft 475 kts 270°
2026-04-30 15:01 49.07850 -0.80307 34088 ft 476 kts 270°
2026-04-30 15:01 49.08060 -0.95481 34091 ft 477 kts 270°
2026-04-30 15:02 49.08188 -1.05509 34088 ft 476 kts 269°
2026-04-30 15:03 49.08783 -1.20628 34085 ft 480 kts 281°
2026-04-30 15:03 49.10357 -1.30480 34078 ft 479 kts 282°
2026-04-30 15:04 49.14337 -1.55130 34071 ft 481 kts 282°
2026-04-30 15:06 49.18263 -1.79926 34064 ft 482 kts 281°
2026-04-30 15:07 49.21366 -1.99806 34066 ft 482 kts 281°
2026-04-30 15:08 49.24678 -2.19667 34057 ft 483 kts 283°
2026-04-30 15:09 49.28904 -2.44412 34054 ft 484 kts 282°
2026-04-30 15:10 49.32250 -2.64321 34050 ft 486 kts 282°
2026-04-30 15:11 49.37209 -2.94282 34037 ft 484 kts 281°
2026-04-30 15:13 49.41277 -3.19266 34027 ft 485 kts 281°
2026-04-30 15:14 49.46881 -3.54313 34034 ft 482 kts 281°
2026-04-30 15:17 49.53907 -3.99339 34029 ft 483 kts 280°
2026-04-30 15:19 49.60225 -4.39201 34039 ft 482 kts 288°
2026-04-30 17:39 50.70052 -34.07824 36416 ft 497 kts 263°
2026-04-30 17:42 50.65024 -34.61427 36417 ft 496 kts 263°
2026-04-30 17:43 50.62411 -34.88253 36411 ft 496 kts 262°
2026-04-30 17:44 50.59206 -35.20288 36400 ft 496 kts 262°
2026-04-30 17:47 50.54229 -35.68304 36409 ft 496 kts 261°
2026-04-30 17:48 50.50225 -36.05544 36418 ft 495 kts 261°
2026-04-30 17:50 50.45510 -36.47984 36419 ft 497 kts 261°
2026-04-30 17:52 50.41864 -36.79820 36415 ft 497 kts 259°
2026-04-30 17:54 50.36231 -37.27507 36427 ft 497 kts 259°
2026-04-30 17:56 50.31047 -37.69901 36408 ft 498 kts 258°
2026-04-30 17:58 50.27058 -38.01643 36412 ft 497 kts 258°
2026-04-30 18:00 50.21598 -38.43928 36415 ft 498 kts 258°
2026-04-30 18:01 50.18096 -38.70393 36408 ft 500 kts 257°
2026-04-30 18:02 50.13820 -39.02062 36424 ft 499 kts 257°
2026-04-30 18:04 50.09459 -39.33667 36427 ft 499 kts 257°
2026-04-30 18:06 50.03517 -39.75674 36422 ft 499 kts 256°
2026-04-30 18:08 49.99041 -40.12579 36426 ft 502 kts 265°
2026-04-30 18:10 49.96763 -40.55594 36423 ft 501 kts 264°
2026-04-30 18:11 49.94456 -40.93189 36405 ft 500 kts 263°
2026-04-30 18:13 49.92729 -41.19912 36398 ft 499 kts 263°
2026-04-30 18:14 49.90933 -41.46703 36405 ft 501 kts 263°
2026-04-30 18:15 49.88705 -41.78687 36403 ft 500 kts 263°
2026-04-30 18:16 49.87167 -42.00048 36402 ft 498 kts 263°
2026-04-30 18:17 49.86387 -42.10683 36412 ft 501 kts 263°
2026-04-30 18:18 49.85194 -42.26672 36425 ft 499 kts 263°
2026-04-30 18:18 49.84390 -42.37295 36422 ft 498 kts 263°
2026-04-30 18:19 49.83575 -42.47919 36418 ft 498 kts 263°
2026-04-30 18:19 49.82752 -42.58513 36427 ft 500 kts 263°
2026-04-30 18:20 49.81920 -42.69114 36426 ft 499 kts 262°
2026-04-30 18:20 49.81074 -42.79750 36422 ft 498 kts 262°
2026-04-30 18:21 49.80222 -42.90340 36423 ft 499 kts 262°
2026-04-30 18:21 49.79355 -43.00995 36421 ft 499 kts 262°
2026-04-30 18:22 49.78480 -43.11621 36420 ft 499 kts 262°
2026-04-30 18:22 49.77155 -43.27488 36419 ft 498 kts 262°
2026-04-30 18:23 49.76255 -43.38105 36414 ft 501 kts 262°
2026-04-30 18:23 49.75351 -43.48669 36413 ft 498 kts 262°
2026-04-30 18:24 49.73972 -43.64547 36412 ft 498 kts 262°
2026-04-30 18:25 49.73041 -43.75123 36407 ft 498 kts 262°
2026-04-30 18:25 49.71631 -43.90939 36400 ft 499 kts 261°
2026-04-30 18:26 49.70190 -44.06845 36401 ft 498 kts 261°
2026-04-30 18:27 49.68737 -44.22638 36400 ft 497 kts 262°
2026-04-30 18:28 49.67266 -44.38377 36403 ft 496 kts 262°
2026-04-30 18:28 49.65774 -44.54108 36415 ft 497 kts 262°
2026-04-30 18:29 49.63750 -44.75085 36409 ft 494 kts 261°
2026-04-30 18:30 49.61694 -44.95987 36418 ft 495 kts 261°
2026-04-30 18:31 49.60126 -45.11662 36417 ft 494 kts 261°
2026-04-30 18:32 49.58537 -45.27335 36420 ft 494 kts 261°
2026-04-30 18:33 49.56927 -45.42977 36422 ft 493 kts 261°
2026-04-30 18:33 49.55305 -45.58541 36420 ft 494 kts 261°
2026-04-30 18:34 49.53658 -45.74124 36417 ft 493 kts 261°
2026-04-30 18:35 49.52549 -45.84497 36419 ft 493 kts 261°
2026-04-30 18:35 49.51429 -45.94890 36417 ft 493 kts 261°
2026-04-30 18:36 49.49741 -46.10383 36416 ft 493 kts 261°
2026-04-30 18:37 49.48027 -46.25901 36416 ft 493 kts 261°
2026-04-30 18:37 49.46875 -46.36232 36415 ft 492 kts 261°
2026-04-30 18:38 49.45712 -46.46571 36417 ft 492 kts 261°
2026-04-30 18:38 49.44547 -46.56835 36411 ft 492 kts 261°
2026-04-30 18:39 49.43365 -46.67172 36407 ft 491 kts 260°
2026-04-30 18:39 49.42183 -46.77413 36407 ft 491 kts 260°
2026-04-30 18:40 49.40987 -46.87705 36413 ft 491 kts 260°
2026-04-30 18:40 49.39779 -46.98003 36413 ft 491 kts 260°
2026-04-30 18:41 49.38563 -47.08299 36416 ft 491 kts 260°
2026-04-30 18:41 49.37346 -47.18514 36422 ft 490 kts 260°
2026-04-30 18:42 49.36118 -47.28740 36424 ft 490 kts 260°
2026-04-30 18:42 49.34261 -47.44058 36430 ft 490 kts 259°
2026-04-30 18:45 49.27285 -48.00074 36413 ft 487 kts 259°
2026-04-30 18:46 49.25997 -48.10172 36410 ft 488 kts 259°
2026-04-30 18:46 49.24694 -48.20303 36410 ft 486 kts 259°
2026-04-30 18:47 49.23382 -48.30438 36408 ft 485 kts 259°
2026-04-30 18:47 49.22075 -48.40461 36409 ft 484 kts 259°
2026-04-30 18:48 49.20753 -48.50529 36411 ft 484 kts 259°
2026-04-30 18:48 49.19418 -48.60616 36409 ft 484 kts 259°
2026-04-30 18:49 49.18076 -48.70690 36406 ft 483 kts 258°
2026-04-30 18:49 49.16740 -48.80649 36405 ft 483 kts 258°
2026-04-30 18:50 49.15389 -48.90644 36406 ft 482 kts 258°
2026-04-30 18:50 49.14030 -49.00637 36404 ft 482 kts 258°
2026-04-30 18:51 49.12658 -49.10647 36400 ft 481 kts 258°
2026-04-30 18:51 49.11290 -49.20570 36392 ft 482 kts 258°
2026-04-30 18:52 49.09910 -49.30508 36389 ft 481 kts 258°
2026-04-30 18:52 49.08519 -49.40459 36389 ft 480 kts 258°
2026-04-30 18:53 49.07119 -49.50405 36388 ft 480 kts 258°
2026-04-30 18:53 49.05722 -49.60264 36387 ft 480 kts 258°
2026-04-30 18:54 49.04308 -49.70181 36385 ft 479 kts 257°
2026-04-30 18:54 49.02893 -49.80043 36383 ft 479 kts 257°
2026-04-30 18:55 49.01459 -49.89968 36383 ft 478 kts 257°
2026-04-30 18:55 48.98790 -50.04536 36385 ft 478 kts 250°
2026-04-30 18:56 48.95457 -50.18727 36377 ft 477 kts 250°
2026-04-30 18:57 48.92060 -50.32901 36383 ft 476 kts 249°
2026-04-30 18:57 48.89785 -50.42302 36392 ft 475 kts 249°
2026-04-30 18:58 48.86356 -50.56359 36385 ft 475 kts 249°
2026-04-30 18:59 48.82920 -50.70343 36372 ft 474 kts 249°
2026-04-30 19:00 48.78292 -50.89030 36370 ft 473 kts 249°
2026-04-30 19:01 48.73642 -51.07649 36373 ft 473 kts 249°
2026-04-30 19:02 48.70157 -51.21502 36367 ft 473 kts 249°
2026-04-30 19:03 48.65464 -51.40017 36363 ft 472 kts 249°
2026-04-30 19:04 48.60760 -51.58430 36359 ft 470 kts 249°
2026-04-30 19:05 48.56039 -51.76763 36360 ft 469 kts 248°
2026-04-30 19:06 48.51291 -51.95053 36359 ft 469 kts 248°
2026-04-30 19:06 48.47866 -52.08775 36351 ft 469 kts 249°
2026-04-30 19:07 48.44582 -52.22533 36349 ft 467 kts 249°
2026-04-30 19:08 48.40132 -52.40951 36342 ft 468 kts 249°
2026-04-30 19:09 48.36793 -52.54657 36336 ft 467 kts 249°
2026-04-30 19:09 48.34547 -52.63823 36331 ft 466 kts 249°
2026-04-30 19:10 48.30062 -52.82009 36334 ft 466 kts 248°
2026-04-30 19:11 48.26673 -52.95657 36331 ft 464 kts 248°
2026-04-30 19:12 48.24418 -53.04688 36320 ft 464 kts 248°
2026-04-30 19:12 48.22148 -53.13745 36311 ft 465 kts 248°
2026-04-30 19:13 48.17587 -53.31832 36307 ft 465 kts 248°
2026-04-30 19:14 48.15300 -53.40848 36311 ft 465 kts 248°
2026-04-30 19:14 48.13002 -53.49873 36306 ft 465 kts 249°
2026-04-30 19:15 48.10689 -53.58917 36295 ft 464 kts 249°
2026-04-30 19:15 48.07240 -53.72341 36288 ft 464 kts 248°
2026-04-30 19:16 48.04922 -53.81319 36287 ft 464 kts 248°
2026-04-30 19:17 48.01428 -53.94783 36276 ft 464 kts 248°
2026-04-30 19:17 47.97919 -54.08227 36268 ft 464 kts 248°
2026-04-30 19:18 47.94395 -54.21650 36259 ft 464 kts 248°
2026-04-30 19:19 47.92028 -54.30625 36256 ft 463 kts 248°
2026-04-30 19:19 47.88501 -54.43930 36256 ft 462 kts 248°
2026-04-30 19:20 47.86131 -54.52831 36254 ft 462 kts 248°
2026-04-30 19:21 47.82576 -54.66112 36253 ft 462 kts 247°
2026-04-30 19:22 47.77814 -54.83792 36259 ft 461 kts 247°
2026-04-30 19:23 47.70642 -55.10167 36262 ft 459 kts 247°
2026-04-30 19:24 47.67046 -55.23282 36254 ft 459 kts 247°
2026-04-30 19:25 47.61006 -55.45148 36246 ft 459 kts 247°
2026-04-30 19:26 47.56158 -55.62556 36246 ft 457 kts 246°
2026-04-30 19:27 47.52509 -55.75575 36247 ft 458 kts 246°
2026-04-30 19:28 47.48860 -55.88525 36257 ft 457 kts 245°
2026-04-30 19:29 47.43956 -56.05821 36260 ft 457 kts 245°
2026-04-30 19:30 47.39030 -56.23066 36256 ft 456 kts 245°
2026-04-30 19:31 47.34098 -56.40212 36249 ft 456 kts 245°
2026-04-30 19:31 47.30373 -56.53085 36236 ft 456 kts 245°
2026-04-30 19:32 47.27866 -56.61707 36236 ft 457 kts 245°
2026-04-30 19:32 47.25380 -56.70232 36229 ft 456 kts 244°
2026-04-30 19:33 47.22873 -56.78796 36227 ft 455 kts 244°
2026-04-30 19:33 47.20375 -56.87299 36229 ft 455 kts 244°
2026-04-30 19:34 47.17848 -56.95870 36231 ft 456 kts 244°
2026-04-30 19:35 47.14076 -57.08613 36236 ft 456 kts 244°
2026-04-30 19:35 47.11554 -57.17094 36234 ft 456 kts 244°
2026-04-30 19:36 47.09026 -57.25569 36233 ft 455 kts 243°
2026-04-30 19:36 47.05204 -57.38325 36231 ft 455 kts 243°
2026-04-30 19:37 47.02655 -57.46795 36226 ft 456 kts 243°
2026-04-30 19:37 47.00100 -57.55257 36224 ft 456 kts 243°
2026-04-30 19:38 46.97520 -57.63773 36219 ft 456 kts 243°
2026-04-30 19:38 46.94955 -57.72211 36218 ft 458 kts 242°
2026-04-30 19:39 46.92334 -57.80798 36215 ft 472 kts 242°
2026-04-30 19:39 46.89594 -57.89744 36218 ft 485 kts 243°
2026-04-30 19:40 46.86818 -57.98782 36217 ft 493 kts 243°
2026-04-30 19:40 46.84013 -58.07885 36209 ft 491 kts 243°
2026-04-30 19:41 46.81224 -58.16899 36212 ft 490 kts 243°
2026-04-30 19:41 46.78408 -58.25970 36207 ft 491 kts 243°
2026-04-30 19:42 46.75594 -58.35001 36210 ft 490 kts 243°
2026-04-30 19:42 46.72770 -58.44029 36202 ft 490 kts 243°
2026-04-30 19:43 46.69952 -58.53009 36199 ft 490 kts 243°
2026-04-30 19:44 46.65705 -58.66481 36200 ft 490 kts 242°
2026-04-30 19:44 46.62867 -58.75442 36195 ft 488 kts 242°
2026-04-30 19:45 46.60018 -58.84409 36195 ft 488 kts 242°
2026-04-30 19:45 46.57176 -58.93322 36192 ft 489 kts 242°
2026-04-30 19:46 46.54322 -59.02241 36191 ft 488 kts 242°
2026-04-30 19:46 46.51477 -59.11100 36187 ft 488 kts 242°
2026-04-30 19:47 46.48615 -59.19982 36184 ft 487 kts 243°
2026-04-30 19:47 46.45740 -59.28876 36187 ft 486 kts 243°
2026-04-30 19:48 46.42876 -59.37701 36180 ft 485 kts 243°
2026-04-30 19:48 46.40019 -59.46479 36176 ft 485 kts 243°
2026-04-30 19:49 46.37136 -59.55306 36173 ft 485 kts 243°
2026-04-30 19:49 46.32823 -59.68451 36173 ft 483 kts 242°
2026-04-30 19:50 46.29945 -59.77188 36167 ft 483 kts 243°
2026-04-30 19:50 46.27063 -59.85906 36164 ft 483 kts 243°
2026-04-30 19:51 46.24162 -59.94654 36166 ft 483 kts 243°
2026-04-30 19:51 46.21273 -60.03336 36164 ft 483 kts 243°
2026-04-30 19:52 46.18368 -60.12037 36164 ft 482 kts 243°
2026-04-30 19:52 46.15440 -60.20778 36156 ft 482 kts 243°
2026-04-30 19:53 46.12525 -60.29451 36149 ft 481 kts 243°
2026-04-30 19:53 46.09622 -60.38059 36145 ft 481 kts 243°
2026-04-30 19:54 46.06701 -60.46696 36133 ft 480 kts 244°
2026-04-30 19:54 46.03774 -60.55318 36125 ft 480 kts 244°
2026-04-30 19:55 46.00841 -60.63928 36127 ft 480 kts 244°
2026-04-30 19:55 45.97895 -60.72553 36135 ft 480 kts 243°
2026-04-30 19:56 45.94959 -60.81118 36134 ft 480 kts 243°
2026-04-30 19:56 45.92020 -60.89664 36120 ft 478 kts 243°
2026-04-30 19:57 45.89085 -60.98172 36108 ft 477 kts 243°
2026-04-30 19:57 45.86118 -61.06745 36113 ft 477 kts 243°
2026-04-30 19:58 45.83181 -61.15205 36102 ft 478 kts 243°
2026-04-30 19:58 45.80232 -61.23672 36095 ft 476 kts 243°
2026-04-30 19:59 45.77263 -61.32169 36096 ft 476 kts 243°
2026-04-30 20:00 45.72819 -61.44836 36098 ft 477 kts 243°
2026-04-30 20:00 45.69848 -61.53272 36097 ft 475 kts 243°
2026-04-30 20:01 45.65383 -61.65898 36083 ft 475 kts 243°
2026-04-30 20:01 45.62397 -61.74310 36081 ft 476 kts 243°
2026-04-30 20:02 45.57918 -61.86879 36070 ft 475 kts 243°
2026-04-30 20:03 45.53446 -61.99369 36070 ft 473 kts 243°
2026-04-30 20:03 45.50444 -62.07723 36062 ft 473 kts 243°
2026-04-30 20:04 45.47445 -62.16040 36059 ft 474 kts 243°
2026-04-30 20:05 45.42940 -62.28487 36045 ft 473 kts 243°
2026-04-30 20:05 45.38402 -62.40969 36038 ft 473 kts 242°
2026-04-30 20:06 45.35371 -62.49275 36037 ft 473 kts 243°
2026-04-30 20:06 45.32335 -62.57569 36034 ft 475 kts 242°
2026-04-30 20:07 45.29285 -62.65873 36027 ft 473 kts 242°
2026-04-30 20:08 45.24720 -62.78258 36031 ft 474 kts 242°
2026-04-30 20:08 45.21647 -62.86563 36027 ft 474 kts 242°
2026-04-30 20:09 45.18592 -62.94793 36030 ft 473 kts 242°
2026-04-30 20:09 45.13973 -63.07194 36020 ft 474 kts 241°
2026-04-30 20:10 45.09354 -63.19537 36018 ft 475 kts 242°